Terminal Aerodrome Forecast
Issued by NWS

Home | Current Version | Previous Version | Text Only | Print | Product List | Glossary On
Versions: 1 2 3 4 5 6 7 8 9 10 11 12 13 14 15 16 17 18 19
000
FTUS42 KGSP 270525
TAFGMU
TAF
KGMU 270525Z 2706/2806 26004KT P6SM VCSH OVC050
     FM270700 33007KT 5SM -SHRA BR OVC020
     FM271300 01010KT P6SM OVC020
     FM271900 01009KT P6SM BKN045
     FM272100 36005KT P6SM BKN060=

USA.gov is the U.S. government's official web portal to all federal, state and local government web resources and services.